STARLINK-33787, 63519

Orbit data source: Space-Track

STARLINK-33787, 63519 is a payload satellite owned by SpaceX/Seattle (US) in LEO that was launched on Mon, 07 Apr 2025 UTC via an FALCON 9 launch vehicle from the Air Force Western Test Range (AFWTR). Payload-class satellites include a variety of spacecraft equipped with specific instruments for various scientific and technological missions. These include communications satellites like Starlink; space stations such as the ISS; scientific satellites like the Hubble; Earth observation satellites from companies like Planet Labs, Umbra, and HawkEye 360; GPS; miniature CubeSats for education and research; and military/defense satellites.

Loading next visibility...
Identifier
63519, 2025-071AC
Orbit
LEO
Country
Flag of USUS
Related business
Manufacturer
SpaceX/Seattle
Mission
Operational Commercial Communications
Bus & Motor
STARLINK V2MO, Unknown motor
Mass
575 kg wet, ~530 kg dry
Launch date (UTC)
2025-04-07 (1 year ago)
Launch vehicle
FALCON 9
Launch site
Air Force Western Test Range (AFWTR)
Object type
Payload
Rocket body
Debris
Shape & HBR
Box + 1 Pan, 17.7 m
Radar Cross Section
41.120 m², Large (>1 m²)

Expand to show TLE details & history
Last TLE update: 2 days ago

TLE from 2 days ago
0 STARLINK-33787
1 63519U 25071AC  26261.88737102  .00016652  00000-0  50266-3 0  9994
2 63519  53.1580 322.9132 0001218  79.4924 280.6216 15.34414283 81972
Epoch: 2026-09-18T21:17Z
TLE epoch observation values (Epoch: 2026-09-18T21:17:48.856Z)
Latitude
0.00002°
Longitude
5.65584°
Altitude
463.408 km
Speed
7.636 km/s
True Right ascension
21h 31m 39s
True Declination
0° 00' 00"
Sunlit
Object was in full shadow at epoch
Visualization orbit readout
Latitude
Unknown
Longitude
Unknown
Altitude
Unknown
Speed
Unknown
Apparent Right ascension
Unknown
Apparent Declination
Unknown
Sunlit
N/A
Visualization observer readout
Local Sidereal Time
02:39:59
Azimuth
Unknown
Elevation
Unknown
Doppler factor
Unknown
Orbital elements
Apogee altitude
463.751 km
Perigee altitude
462.085 km
Semi-major axis
6,841.055 km
Eccentricity
0.00012
Inclination
53.158°
RAAN
322.9132°
Arg. of periapsis
79.4924°
True anomaly
280.60788°
Mean anomaly
280.6216°
Eccentric anomaly
280.61474°
Mean motion
3.83582 °/min
Orbital period
93.85 mins
BSTAR
0.00050266
Loading maneuver chart data...
Computing Atmospheric mass density...
Loading historical data...
Loading historical data...
Loading historical data...
Loading historical data...
Loading historical data...
Loading historical data...
Loading historical data...

Documentation

Showing up to 5 results
|